DECAYED

OBJECT C, 53301 (Decayed)

Orbit data source: Space-Track

You're viewing an Uncataloged Satellite

Recently launched and/or uncataloged satellites may have evolving metadata. Metadata may include but not limited to: Owner, Maufacturer, Bus, Motor, and Mission.

OBJECT C, 53301 was a Chinese satellite in LEO that was launched on Wed, 27 Jul 2022 UTC via a LIJIAN-1 launch vehicle from the Jiuquan Satellite Launch Center, China (JSC). Unknown objects in Earth's orbit typically refer to objects detected orbiting the Earth but have not yet been identified or cataloged. These objects could be anything from previously untracked satellites, spent rocket stages, debris from satellite collisions, or even natural meteoroids temporarily captured by Earth's gravity. This object's orbit decayed before it could be identified.

Not visible in the next 10 days
Identifier
53301, 2022-087C
Orbit
Decayed
Country
Flag of CNCN / PRC
Related business
None
Manufacturer
Unknown
Mission
Decayed Civil Technology
Bus & Motor
Unknown
Mass
Unknown
Launch date (UTC)
2022-07-27 (4 years ago)
Launch vehicle
LIJIAN-1
Launch site
Jiuquan Satellite Launch Center, China (JSC)
Object type
Unknown
Shape & HBR
Box, 0.1 m
Radar Cross Section
0.080 m², Medium (>0.1 m² and < 1m²)

Expand to show TLE details & history
Last TLE update: 1 year ago

TLE from 1 year ago
0 OBJECT C
1 53301U 22087C   25132.05649914  .12978490  25260-5  15036-3 0  9990
2 53301  97.2713 224.8906 0013761 258.1053 101.8708 16.49421312156848
Epoch: 2025-05-12T01:21Z
TLE epoch observation values (Epoch: 2025-05-12T01:21:21.525Z)
Latitude
-0.00013°
Longitude
-25.52413°
Altitude
145.985 km
Speed
7.817 km/s
True Right ascension
14h 59m 33s
True Declination
0° 00' 00"
Sunlit
Object was in full shadow at epoch
Visualization orbit readout
Latitude
Unknown
Longitude
Unknown
Altitude
Unknown
Speed
Unknown
Apparent Right ascension
Unknown
Apparent Declination
Unknown
Sunlit
N/A
Visualization observer readout
Local Sidereal Time
21:23:49
Azimuth
Unknown
Elevation
Unknown
Doppler factor
Unknown
Orbital elements
Apogee altitude
146.616 km
Perigee altitude
128.683 km
Semi-major axis
6,515.786 km
Eccentricity
0.00138
Inclination
97.2713°
RAAN
224.8906°
Arg. of periapsis
258.1053°
True anomaly
102.02506°
Mean anomaly
101.8708°
Eccentric anomaly
101.94794°
Mean motion
4.12661 °/min
Orbital period
87.24 mins
BSTAR
0.00015036
Loading maneuver chart data...
Computing Atmospheric mass density...
Loading historical data...
Loading historical data...
Loading historical data...
Loading historical data...
Loading historical data...
Loading historical data...
Loading historical data...

Documentation

Showing up to 5 results
|